TimeCDT,TemperatureF,Dew PointF,Humidity,Sea Level PressureIn,VisibilityMPH,Wind Direction,Wind SpeedMPH,Gust SpeedMPH,PrecipitationIn,Events,Conditions,WindDirDegrees,DateUTC
12:14 AM,50.0,37.4,62,30.00,10.0,Calm,Calm,-,N/A,,Clear,0,2013-10-02 05:14:00
12:33 AM,50.0,35.6,58,30.01,10.0,Calm,Calm,-,N/A,,Clear,0,2013-10-02 05:33:00
12:53 AM,50.0,37.4,62,30.01,10.0,Calm,Calm,-,N/A,,Clear,0,2013-10-02 05:53:00
1:14 AM,50.0,37.4,62,30.01,10.0,Calm,Calm,-,N/A,,Clear,0,2013-10-02 06:14:00
1:34 AM,50.0,37.4,62,30.01,10.0,Calm,Calm,-,N/A,,Clear,0,2013-10-02 06:34:00
1:53 AM,48.2,37.4,66,30.01,10.0,Calm,Calm,-,N/A,,Clear,0,2013-10-02 06:53:00
2:14 AM,46.4,37.4,71,30.01,10.0,NNE,3.5,-,N/A,,Clear,30,2013-10-02 07:14:00
2:33 AM,44.6,35.6,71,30.01,10.0,Calm,Calm,-,N/A,,Clear,0,2013-10-02 07:33:00
2:53 AM,42.8,35.6,76,30.02,10.0,SSW,5.8,-,N/A,,Clear,210,2013-10-02 07:53:00
3:14 AM,44.6,37.4,76,30.02,10.0,Calm,Calm,-,N/A,,Clear,0,2013-10-02 08:14:00
3:33 AM,44.6,37.4,76,30.01,10.0,NE,3.5,-,N/A,,Clear,50,2013-10-02 08:33:00
3:54 AM,46.4,37.4,71,30.00,10.0,NE,4.6,-,N/A,,Clear,50,2013-10-02 08:54:00
4:13 AM,46.4,37.4,71,30.00,10.0,ENE,4.6,-,N/A,,Clear,70,2013-10-02 09:13:00
4:33 AM,50.0,37.4,62,29.99,10.0,ENE,5.8,-,N/A,,Clear,60,2013-10-02 09:33:00
4:53 AM,50.0,37.4,62,29.99,10.0,ENE,4.6,-,N/A,,Clear,60,2013-10-02 09:53:00
5:13 AM,46.4,37.4,71,30.00,10.0,SE,3.5,-,N/A,,Clear,130,2013-10-02 10:13:00
5:34 AM,46.4,37.4,71,30.00,10.0,Calm,Calm,-,N/A,,Clear,0,2013-10-02 10:34:00
5:53 AM,42.8,35.6,76,30.00,10.0,Calm,Calm,-,N/A,,Clear,0,2013-10-02 10:53:00
6:13 AM,42.8,35.6,76,30.01,10.0,SSE,3.5,-,N/A,,Clear,150,2013-10-02 11:13:00
6:33 AM,42.8,35.6,76,30.00,10.0,Calm,Calm,-,N/A,,Clear,0,2013-10-02 11:33:00
6:53 AM,42.8,35.6,76,30.01,10.0,Calm,Calm,-,N/A,,Clear,0,2013-10-02 11:53:00
7:14 AM,42.8,35.6,76,30.01,10.0,Calm,Calm,-,N/A,,Clear,0,2013-10-02 12:14:00
7:33 AM,44.6,35.6,71,30.01,7.0,SSE,5.8,-,N/A,,Clear,150,2013-10-02 12:33:00
7:54 AM,44.6,35.6,71,30.01,10.0,SSE,4.6,-,N/A,,Clear,150,2013-10-02 12:54:00
8:13 AM,50.0,39.2,66,30.01,10.0,SSE,6.9,-,N/A,,Clear,150,2013-10-02 13:13:00
8:33 AM,50.0,39.2,66,30.01,10.0,SE,4.6,-,N/A,,Clear,140,2013-10-02 13:33:00
8:54 AM,51.8,39.2,62,30.01,10.0,SSE,8.1,-,N/A,,Clear,150,2013-10-02 13:54:00
9:13 AM,53.6,41.0,62,30.01,10.0,SE,8.1,-,N/A,,Clear,140,2013-10-02 14:13:00
9:33 AM,57.2,39.2,51,30.00,10.0,SE,10.4,16.1,N/A,,Clear,140,2013-10-02 14:33:00
9:54 AM,59.0,39.2,48,30.00,10.0,SE,11.5,16.1,N/A,,Clear,140,2013-10-02 14:54:00
10:14 AM,62.6,39.2,42,29.99,10.0,SE,11.5,-,N/A,,Clear,140,2013-10-02 15:14:00
10:33 AM,64.4,37.4,37,29.99,10.0,SE,15.0,18.4,N/A,,Clear,140,2013-10-02 15:33:00
10:53 AM,69.8,39.2,33,29.98,10.0,SE,12.7,21.9,N/A,,Clear,140,2013-10-02 15:53:00
11:13 AM,69.8,37.4,31,29.98,10.0,SE,15.0,21.9,N/A,,Clear,140,2013-10-02 16:13:00
11:33 AM,69.8,35.6,28,29.97,10.0,SE,16.1,27.6,N/A,,Clear,130,2013-10-02 16:33:00
11:53 AM,71.6,35.6,27,29.97,10.0,SE,16.1,25.3,N/A,,Scattered Clouds,140,2013-10-02 16:53:00
12:13 PM,71.6,33.8,25,29.96,10.0,SE,18.4,27.6,N/A,,Mostly Cloudy,140,2013-10-02 17:13:00
12:34 PM,73.4,33.8,23,29.96,10.0,SE,18.4,23.0,N/A,,Scattered Clouds,130,2013-10-02 17:34:00
12:54 PM,73.4,35.6,25,29.95,10.0,SSE,17.3,23.0,N/A,,Mostly Cloudy,150,2013-10-02 17:54:00
1:13 PM,73.4,35.6,25,29.94,10.0,SE,17.3,24.2,N/A,,Overcast,130,2013-10-02 18:13:00
1:34 PM,73.4,35.6,25,29.92,10.0,SSE,13.8,27.6,N/A,,Mostly Cloudy,150,2013-10-02 18:34:00
1:53 PM,75.2,33.8,22,29.89,10.0,SSE,19.6,27.6,N/A,,Mostly Cloudy,150,2013-10-02 18:53:00
2:13 PM,73.4,33.8,23,29.87,10.0,SSE,18.4,25.3,N/A,,Scattered Clouds,150,2013-10-02 19:13:00
2:34 PM,77.0,37.4,24,29.86,10.0,SSE,23.0,32.2,N/A,,Scattered Clouds,160,2013-10-02 19:34:00
2:53 PM,77.0,35.6,22,29.84,10.0,SSE,21.9,28.8,N/A,,Scattered Clouds,150,2013-10-02 19:53:00
3:14 PM,77.0,37.4,24,29.83,10.0,SSE,21.9,29.9,N/A,,Mostly Cloudy,150,2013-10-02 20:14:00
3:33 PM,77.0,39.2,26,29.82,10.0,SSE,18.4,26.5,N/A,,Overcast,150,2013-10-02 20:33:00
3:53 PM,77.0,41.0,28,29.81,10.0,SSE,18.4,24.2,N/A,,Mostly Cloudy,150,2013-10-02 20:53:00
4:14 PM,77.0,42.8,29,29.81,10.0,SSE,17.3,26.5,N/A,,Mostly Cloudy,160,2013-10-02 21:14:00
4:33 PM,77.0,44.6,32,29.80,10.0,SSE,16.1,26.5,N/A,,Mostly Cloudy,160,2013-10-02 21:33:00
4:53 PM,77.0,42.8,29,29.79,10.0,SSE,15.0,21.9,N/A,,Mostly Cloudy,150,2013-10-02 21:53:00
5:14 PM,78.8,46.4,32,29.79,10.0,SSE,18.4,24.2,N/A,,Mostly Cloudy,160,2013-10-02 22:14:00
5:33 PM,77.0,46.4,34,29.79,10.0,SSE,15.0,20.7,N/A,Thunderstorm,Overcast,160,2013-10-02 22:33:00
5:53 PM,77.0,48.2,36,29.77,10.0,SSE,10.4,-,N/A,,Overcast,150,2013-10-02 22:53:00
6:14 PM,77.0,50.0,39,29.77,7.0,SE,9.2,-,N/A,,Overcast,140,2013-10-02 23:14:00
6:33 PM,77.0,50.0,39,29.77,7.0,ESE,8.1,-,N/A,Thunderstorm,Thunderstorm,120,2013-10-02 23:33:00
6:54 PM,73.4,50.0,44,29.77,10.0,East,8.1,-,N/A,,Overcast,90,2013-10-02 23:54:00
7:13 PM,60.8,46.4,59,29.84,10.0,North,26.5,46.0,N/A,Thunderstorm,Thunderstorm,360,2013-10-03 00:13:00
7:33 PM,57.2,51.8,82,29.87,10.0,North,18.4,24.2,0.07,Rain-Thunderstorm,Light Thunderstorms and Rain,10,2013-10-03 00:33:00
7:53 PM,57.2,51.8,82,29.85,2.0,East,12.7,24.2,0.60,Rain-Thunderstorm,Heavy Thunderstorms and Rain,80,2013-10-03 00:53:00
8:13 PM,57.2,53.6,88,29.83,10.0,ENE,12.7,17.3,0.01,Rain-Thunderstorm,Light Thunderstorms and Rain,60,2013-10-03 01:13:00
8:33 PM,57.2,53.6,88,29.83,10.0,ENE,8.1,-,0.01,Rain-Thunderstorm,Light Thunderstorms and Rain,70,2013-10-03 01:33:00
8:53 PM,55.4,51.8,88,29.83,10.0,ENE,11.5,17.3,0.01,,Light Drizzle,70,2013-10-03 01:53:00
9:13 PM,57.2,53.6,88,29.84,10.0,ENE,8.1,-,N/A,Rain,Light Rain,70,2013-10-03 02:13:00
9:33 PM,57.2,53.6,88,29.84,10.0,East,6.9,-,N/A,,Mostly Cloudy,80,2013-10-03 02:33:00
9:54 PM,55.4,53.6,94,29.85,10.0,ENE,6.9,-,N/A,,Overcast,60,2013-10-03 02:54:00
10:14 PM,57.2,53.6,88,29.85,10.0,NE,4.6,-,N/A,,Mostly Cloudy,50,2013-10-03 03:14:00
10:34 PM,55.4,51.8,88,29.84,10.0,ENE,6.9,-,N/A,,Mostly Cloudy,60,2013-10-03 03:34:00
10:53 PM,55.4,51.8,88,29.86,10.0,NE,5.8,-,N/A,,Scattered Clouds,40,2013-10-03 03:53:00
11:13 PM,53.6,51.8,94,29.84,10.0,NNE,6.9,-,N/A,,Scattered Clouds,20,2013-10-03 04:13:00
11:34 PM,53.6,51.8,94,29.84,10.0,NE,5.8,-,N/A,,Mostly Cloudy,40,2013-10-03 04:34:00
11:53 PM,53.6,51.8,94,29.84,10.0,NNE,6.9,-,N/A,,Overcast,30,2013-10-03 04:53:00